STARLINK-32304, 60738

Orbit data source: Space-Track

STARLINK-32304, 60738 is a payload satellite owned by SpaceX/Seattle (US) in LEO that was launched on Wed, 28 Aug 2024 UTC via an FALCON 9 launch vehicle from the Air Force Eastern Test Range (AFETR). Payload-class satellites include a variety of spacecraft equipped with specific instruments for various scientific and technological missions. These include communications satellites like Starlink; space stations such as the ISS; scientific satellites like the Hubble; Earth observation satellites from companies like Planet Labs, Umbra, and HawkEye 360; GPS; miniature CubeSats for education and research; and military/defense satellites.

Loading next visibility...
Identifier
60738, 2024-152U
Orbit
LEO
Last TLE update
23 hours ago
Origin
Manufacturer
SpaceX/Seattle
Mission
Operational Commercial Communications
Bus & Motor
STARLINK V2M, Unknown motor
Mass
730 kg wet, ~700 kg dry
Launch date (UTC)
2024-08-28 (8 months ago)
Launch vehicle
FALCON 9
Launch site
Air Force Eastern Test Range (AFETR)
Object type
Payload
Rocket body
Debris
Shape & HBR
Box + 2 Pan, 29 m
Radar Cross Section
36.964 m², Large (>1 m²)

Expand to show TLE details & history

TLE from 23 hours ago
0 STARLINK-32304
1 60738U 24152U   25108.91728134  .00004569  00000-0  16634-3 0  9996
2 60738  53.1611 337.1867 0001078 100.1301 259.9821 15.30188319 37106
Epoch: 2025-04-18T22:00Z
Definitive object data (Epoch: 2025-04-18T22:00:53.107Z)
Latitude
-0.00007°
Longitude
159.69742°
Altitude
476.278 km
Speed
7.629 km/s
True Right ascension
22h 28m 44s
True Declination
0° 00' 00"
Sunlit
Object was in daylight at TLE epoch
Visualization TLE readout
Latitude
-34.647°
Longitude
6.24738°
Altitude
486.593 km
Speed
7.621 km/s
Apparent Right ascension
13h 53m 35s
Apparent Declination
-40° 08' 30"
Sunlit
Object is in full shadow
Visualization observer readout
Local Sidereal Time
03:48:44
Azimuth
99.946° ESE
Elevation
-68.055°
Doppler factor
1
Orbital elements
Apogee altitude
476.245 km
Perigee altitude
474.767 km
Semi-major axis
6,853.643 km
Eccentricity
0.0001078
Inclination
53.1611°
RAAN
337.1867°
Arg. of periapsis
100.1301°
True anomaly
259.96994°
Mean anomaly
259.9821°
Eccentric anomaly
259.97602°
Mean motion
3.82526 °/min
BSTAR
0.00016634
Orbital period
94.11 mins
Loading maneuver chart data...
Loading SW <> Apogee altitude chart data...
Loading historical data...
Loading historical data...
Loading historical data...
Loading historical data...
Loading historical data...
Loading historical data...
Loading historical data...

STARLINK-32304 Visibility forecast

Observer location: undefined°, undefined°

Span
Click to sort rows by Start time (UTC) header in descending order
Start Az.
Max El. time (UTC)
Max El. Az.
Max El.
End time (UTC)
End Az.
4 mins2025-04-19 23:34:22.206Z345.126° N2025-04-19 23:36:22.206Z36.244° NE24.627°2025-04-19 23:38:22.206Z79.728° E
5 mins2025-04-20 01:12:22.206Z282.075° WNW2025-04-20 01:14:22.206Z214.409° SW32.994°2025-04-20 01:17:22.206Z156.206° SSE
4 mins2025-04-20 16:30:22.206Z165.23° S2025-04-20 16:32:22.206Z119.863° SE20.261°2025-04-20 16:34:22.206Z82.911° E
5 mins2025-04-20 18:07:22.206Z260.588° W2025-04-20 18:09:22.206Z309.529° NW33.856°2025-04-20 18:12:22.206Z34.038° NE
|